DW6345 Murcia ES current weather conditions

sailwx.info

Wind from 327 at 1 knots gusting 2

Air temperature 20.6° C
Dewpoint 10.9° C

Last reported at 2017-May-25 23:09 UTC.
Time now 2017-May-25 23:54 UTC

Location: N 37°60' W 001°06'.
View on Google Maps.

See reports from other nearby stations

  
Tides and Currents Weather Stations Pressure Air Temp Water Temp Dewpoint Dewpoint Depression Visibility Wind Speed Wind Dir Waves Ship Positions
date/time (UTC)wind fromknots sea level pressurealtimeterstation pressurevisibilityair tempwater tempwave heightnotes
2017-May-25 23:09 327 1 gusting 2 20.6
2017-May-25 23:04 301 1 gusting 2 20.6
2017-May-25 22:59 026 1 gusting 4 20.6
2017-May-25 22:54 030 1 gusting 1 20.6
2017-May-25 22:49 328 1 gusting 4 21.1
2017-May-25 22:44 323 2 gusting 4 21.1
2017-May-25 22:39 026 2 gusting 5 21.1
2017-May-25 22:34 036 1 gusting 5 21.1
2017-May-25 22:29 041 1 gusting 5 21.1
2017-May-25 22:24 042 2 gusting 4 21.1
2017-May-25 22:19 033 2 gusting 5 21.1
2017-May-25 22:14 031 4 gusting 5 21.1
2017-May-25 22:09 022 4 gusting 5 21.1
2017-May-25 22:04 015 2 gusting 6 21.7
2017-May-25 21:59 035 2 gusting 5 21.7
2017-May-25 21:54 023 4 gusting 5 21.7
2017-May-25 21:49 027 4 gusting 6 21.7
2017-May-25 21:44 038 4 gusting 6 21.7
2017-May-25 21:39 044 4 gusting 7 21.7
2017-May-25 21:34 027 4 gusting 6 21.7
2017-May-25 21:29 040 4 gusting 7 21.7
2017-May-25 21:24 017 2 gusting 6 22.2
2017-May-25 21:19 032 2 gusting 6 22.2
2017-May-25 21:14 012 4 gusting 6 22.2
2017-May-25 21:09 342 4 gusting 6 22.2
2017-May-25 21:04 004 4 gusting 6 22.2
2017-May-25 20:59 340 4 gusting 6 22.2
2017-May-25 20:54 029 4 gusting 6 22.2
2017-May-25 20:49 029 4 gusting 6 22.2
2017-May-25 20:44 014 2 gusting 6 22.8
2017-May-25 20:39 028 2 gusting 6 22.8
2017-May-25 20:34 042 4 gusting 5 22.8
2017-May-25 20:29 006 4 gusting 5 22.8
2017-May-25 20:24 011 4 gusting 6 23.3
2017-May-25 20:19 028 4 gusting 6 23.3
2017-May-25 20:14 033 4 gusting 6 23.3
2017-May-25 20:09 028 4 gusting 6 23.3
2017-May-25 20:04 048 4 gusting 7 23.3
2017-May-25 19:59 051 4 gusting 7 23.9
2017-May-25 19:54 052 4 gusting 6 23.9
2017-May-25 19:49 038 4 gusting 6 23.9
2017-May-25 19:44 029 4 gusting 7 23.9
2017-May-25 19:39 040 4 gusting 6 24.4
2017-May-25 19:34 042 2 gusting 6 24.4
2017-May-25 19:29 035 2 gusting 5 24.4
2017-May-25 19:24 080 4 gusting 5 24.4
2017-May-25 19:19 018 4 gusting 6 24.4
2017-May-25 19:14 051 4 gusting 6 24.4
2017-May-25 19:09 055 4 gusting 6 25.0
2017-May-25 19:04 052 4 gusting 6 25.0
2017-May-25 18:59 063 4 gusting 8 25.0
2017-May-25 18:54 050 5 gusting 7 25.6
2017-May-25 18:49 049 5 gusting 6 25.6
2017-May-25 18:44 049 5 gusting 8 25.6
2017-May-25 18:39 039 5 gusting 8 25.6
2017-May-25 18:34 046 5 gusting 8 25.6
2017-May-25 18:29 049 5 gusting 8 25.6
2017-May-25 18:24 032 5 gusting 8 26.1
2017-May-25 18:19 050 5 gusting 8 26.1
2017-May-25 18:14 031 5 gusting 7 26.1
2017-May-25 18:09 044 5 gusting 7 26.1
2017-May-25 18:04 040 5 gusting 7 26.7
2017-May-25 17:59 050 5 gusting 7 26.7
2017-May-25 17:54 030 6 gusting 7 26.7
2017-May-25 17:49 062 6 gusting 8 26.7
2017-May-25 17:44 047 5 gusting 12 26.7
2017-May-25 17:39 041 5 gusting 12 27.2
2017-May-25 17:34 056 6 gusting 11 27.2
2017-May-25 17:29 036 6 gusting 10 27.2
2017-May-25 17:24 048 7 gusting 11 27.2
2017-May-25 17:19 038 7 gusting 12 27.2
2017-May-25 17:14 033 6 gusting 12 27.2
2017-May-25 17:09 037 6 gusting 12 27.8
2017-May-25 17:04 045 6 gusting 11 27.8
2017-May-25 16:59 041 6 gusting 11 27.8
2017-May-25 16:54 042 7 gusting 13 27.8
2017-May-25 16:49 040 7 gusting 12 27.8
2017-May-25 16:44 028 7 gusting 11 28.3
2017-May-25 16:39 026 7 gusting 14 28.3
2017-May-25 16:34 028 8 gusting 13 28.3
2017-May-25 16:29 019 8 gusting 13 28.3
2017-May-25 16:24 042 8 gusting 14 28.3
2017-May-25 16:19 046 8 gusting 14 28.3
2017-May-25 16:14 046 8 gusting 14 28.3
2017-May-25 16:09 032 8 gusting 14 28.3
2017-May-25 16:04 039 7 gusting 14 28.9
2017-May-25 15:59 042 7 gusting 14 28.9
2017-May-25 15:54 031 7 gusting 14 28.9
2017-May-25 15:49 046 7 gusting 13 28.9
2017-May-25 15:44 044 8 gusting 13 28.9
2017-May-25 15:39 034 8 gusting 13 28.9
2017-May-25 15:34 046 8 gusting 15 28.9
2017-May-25 15:29 025 8 gusting 13 28.9
2017-May-25 15:24 040 8 gusting 13 28.9
2017-May-25 15:19 046 8 gusting 17 28.9
2017-May-25 15:14 036 7 gusting 15 28.9
2017-May-25 15:09 036 7 gusting 15 28.9
2017-May-25 15:04 030 7 gusting 13 28.9
2017-May-25 14:59 043 7 gusting 15 28.9
2017-May-25 14:54 043 8 gusting 14 28.9
2017-May-25 14:49 053 8 gusting 13 28.9
2017-May-25 14:44 037 6 gusting 14 28.9
2017-May-25 14:39 046 6 gusting 14 28.9
2017-May-25 14:34 039 6 gusting 10 28.9
2017-May-25 14:29 030 6 gusting 14 28.9
2017-May-25 14:24 032 6 gusting 13 28.9
2017-May-25 14:19 040 6 gusting 13 28.9
2017-May-25 14:14 047 6 gusting 12 28.9
2017-May-25 14:09 034 6 gusting 13 28.9
2017-May-25 14:04 074 6 gusting 15 28.9
2017-May-25 13:59 038 6 gusting 12 28.9
2017-May-25 13:54 035 7 gusting 8 28.9
2017-May-25 13:49 043 7 gusting 13 28.9
2017-May-25 13:44 033 6 gusting 14 28.9
2017-May-25 13:39 034 6 gusting 12 28.9
2017-May-25 13:34 050 6 gusting 12 28.9
2017-May-25 13:29 069 6 gusting 14 28.9
2017-May-25 13:24 025 6 gusting 11 28.9
2017-May-25 13:19 046 6 gusting 13 28.3
2017-May-25 13:14 059 5 gusting 13 28.9
2017-May-25 13:09 067 5 gusting 10 28.9
2017-May-25 13:04 038 6 gusting 11 28.9
2017-May-25 12:59 030 6 gusting 11 28.9
2017-May-25 12:54 052 5 gusting 11 28.9
2017-May-25 12:49 097 5 gusting 12 28.3
2017-May-25 12:44 094 6 gusting 11 28.3
2017-May-25 12:39 056 6 gusting 11 28.3
2017-May-25 12:34 028 6 gusting 11 28.3
2017-May-25 12:29 076 6 gusting 11 28.3
2017-May-25 12:24 047 6 gusting 8 28.3
2017-May-25 12:19 051 6 gusting 13 28.3
2017-May-25 12:14 090 6 gusting 14 27.8
2017-May-25 12:09 073 6 gusting 12 28.3
2017-May-25 12:04 075 7 gusting 13 27.8
2017-May-25 11:59 056 7 gusting 13 27.8
2017-May-25 11:54 043 6 gusting 15 27.8
2017-May-25 11:49 075 6 gusting 11 27.8
2017-May-25 11:44 044 6 gusting 13 27.8
2017-May-25 11:39 044 6 gusting 13 27.8
2017-May-25 11:34 049 6 gusting 13 27.8
2017-May-25 11:29 022 6 gusting 11 27.8
2017-May-25 11:24 043 7 gusting 11 27.2
2017-May-25 11:19 043 7 gusting 13 27.8
2017-May-25 11:14 082 7 gusting 14 27.8
2017-May-25 11:09 054 7 gusting 14 27.8
2017-May-25 11:04 057 6 gusting 13 27.8
2017-May-25 10:59 028 6 gusting 14 27.8
2017-May-25 10:54 031 6 gusting 10 27.8
2017-May-25 10:49 028 6 gusting 12 27.2
2017-May-25 10:44 007 6 gusting 11 27.2
2017-May-25 10:39 353 6 gusting 11 26.7
2017-May-25 10:34 047 6 gusting 11 26.7
2017-May-25 10:29 037 6 gusting 10 26.7
2017-May-25 10:24 052 5 gusting 12 26.7
2017-May-25 10:19 059 5 gusting 8 26.7
2017-May-25 10:14 028 5 gusting 7 26.7
2017-May-25 10:09 024 5 gusting 10 26.7
2017-May-25 10:04 034 5 gusting 8 26.7
2017-May-25 09:59 025 5 gusting 8 26.1
2017-May-25 09:54 024 5 gusting 10 26.1
2017-May-25 09:49 057 5 gusting 7 26.1
2017-May-25 09:44 033 2 gusting 8 26.1
2017-May-25 09:39 042 2 gusting 7 26.1
2017-May-25 09:34 054 1 gusting 6 26.7
2017-May-25 09:29 013 1 gusting 6 26.1
2017-May-25 09:24 059 1 gusting 4 26.1
2017-May-25 09:19 055 1 gusting 6 26.1
2017-May-25 09:14 282 1 gusting 1 25.6
2017-May-25 09:09 260 1 gusting 2 25.6
2017-May-25 09:04 322 1 gusting 5 25.0
2017-May-25 08:59 233 1 gusting 4 25.0
2017-May-25 08:54 239 1 gusting 4 25.0
2017-May-25 08:49 073 1 gusting 4 25.0
2017-May-25 08:44 008 1 gusting 4 24.4
2017-May-25 08:39 065 1 gusting 1 23.9
2017-May-25 08:34 291 1 gusting 2 23.9
2017-May-25 08:29 265 1 gusting 4 23.3
2017-May-25 08:24 289 1 gusting 4 23.3
2017-May-25 08:19 288 1 gusting 6 23.3
2017-May-25 08:14 274 4 gusting 5 22.8
2017-May-25 08:09 193 4 gusting 5 22.8
2017-May-25 08:04 255 4 gusting 5 22.2
2017-May-25 07:59 248 4 gusting 6 22.2
2017-May-25 07:54 239 2 gusting 6 22.2
2017-May-25 07:49 239 2 gusting 6 22.2
2017-May-25 07:44 197 2 gusting 6 21.7
2017-May-25 07:39 214 2 gusting 5 21.7
2017-May-25 07:34 222 4 gusting 5 21.7
2017-May-25 07:29 224 4 gusting 6 21.1
2017-May-25 07:24 197 4 gusting 6 21.1
2017-May-25 07:19 199 4 gusting 5 21.1
2017-May-25 07:14 204 4 gusting 6 21.1
2017-May-25 07:09 223 4 gusting 6 20.6
2017-May-25 07:04 226 5 gusting 6 20.6
2017-May-25 06:59 216 5 gusting 7 20.0
2017-May-25 06:54 240 5 gusting 7 20.0
2017-May-25 06:49 232 5 gusting 7 20.0
2017-May-25 06:44 232 2 gusting 7 20.0
2017-May-25 06:39 235 2 gusting 6 20.0
2017-May-25 06:34 246 2 gusting 4 19.4
2017-May-25 06:29 214 2 gusting 6 19.4
2017-May-25 06:24 213 4 gusting 5 19.4
2017-May-25 06:19 225 4 gusting 5 18.9
2017-May-25 06:14 232 2 gusting 5 18.9
2017-May-25 06:09 228 2 gusting 5 18.9
2017-May-25 06:04 212 1 gusting 4 18.9
2017-May-25 05:59 235 1 gusting 4 18.3
2017-May-25 05:54 212 2 gusting 4 18.3
2017-May-25 05:49 231 2 gusting 5 18.3
2017-May-25 05:44 245 1 gusting 4 18.3
2017-May-25 05:39 257 1 gusting 4 18.3
2017-May-25 05:34 271 2 gusting 2 18.3
2017-May-25 05:29 210 2 gusting 4 17.8
2017-May-25 05:24 232 4 gusting 5 17.8
2017-May-25 05:19 243 4 gusting 6 17.8
2017-May-25 05:14 221 4 gusting 5 17.8
2017-May-25 05:09 235 4 gusting 6 17.8
2017-May-25 05:04 219 4 gusting 6 17.8
2017-May-25 04:59 228 4 gusting 7 17.8
2017-May-25 04:54 219 4 gusting 7 17.8
2017-May-25 04:49 225 4 gusting 7 17.8
2017-May-25 04:44 222 4 gusting 6 17.8
2017-May-25 04:39 220 4 gusting 5 17.8
2017-May-25 04:34 214 4 gusting 5 17.8
2017-May-25 04:29 211 4 gusting 6 17.8
2017-May-25 04:24 189 1 gusting 6 17.8
2017-May-25 04:19 194 1 gusting 6 17.8
2017-May-25 04:14 196 2 gusting 4 17.8
2017-May-25 04:09 188 2 gusting 4 17.8
2017-May-25 04:04 148 2 gusting 4 17.8
2017-May-25 03:59 162 2 gusting 5 17.8
2017-May-25 03:54 160 1 gusting 5 17.8
2017-May-25 03:49 159 1 gusting 5 17.8
2017-May-25 03:44 140 1 gusting 4 18.3
2017-May-25 03:39 135 1 gusting 4 18.3
2017-May-25 03:34 233 2 gusting 2 18.3
2017-May-25 03:29 238 2 gusting 4 18.3
2017-May-25 03:24 240 2 gusting 5 18.3
2017-May-25 03:19 230 2 gusting 5 18.3
2017-May-25 03:14 247 4 gusting 4 18.3
2017-May-25 03:09 209 4 gusting 6 18.3
2017-May-25 03:04 226 4 gusting 6 18.9
2017-May-25 02:59 241 4 gusting 7 18.9
2017-May-25 02:54 238 2 gusting 6 18.9
2017-May-25 02:49 237 2 gusting 5 18.9
2017-May-25 02:44 227 2 gusting 5 18.9
2017-May-25 02:39 233 2 gusting 4 18.9
2017-May-25 02:34 213 1 gusting 6 18.9
2017-May-25 02:29 187 1 gusting 6 18.9
2017-May-25 02:24 216 1 gusting 4 18.9
2017-May-25 02:19 240 1 gusting 4 18.9
2017-May-25 02:14 243 1 gusting 4 18.9
2017-May-25 02:09 256 1 gusting 4 18.9
2017-May-25 02:04 252 1 gusting 4 18.9
2017-May-25 01:59 190 1 gusting 4 18.9
2017-May-25 01:54 176 1 gusting 4 18.9
2017-May-25 01:49 178 1 gusting 4 18.9
2017-May-25 01:44 160 1 gusting 4 18.9
2017-May-25 01:39 151 1 gusting 2 18.9
2017-May-25 01:34 152 0 gusting 1 18.9
2017-May-25 01:29 152 0 gusting 2 18.9
2017-May-25 01:24 123 1 gusting 1 18.9
2017-May-25 01:19 123 1 gusting 1 18.9
2017-May-25 01:14 114 0 gusting 2 18.9
2017-May-25 01:09 082 0 gusting 2 18.9
2017-May-25 01:04 073 1 gusting 1 18.9
2017-May-25 00:59 073 1 gusting 1 18.9
2017-May-25 00:54 073 1 gusting 2 18.9
2017-May-25 00:49 073 1 gusting 2 18.9
2017-May-25 00:44 345 19.4
2017-May-25 00:39 339 19.4
2017-May-25 00:34 339 0 gusting 1 19.4
2017-May-25 00:29 339 0 gusting 1 19.4
2017-May-25 00:24 339 0 gusting 1 19.4
2017-May-25 00:19 339 0 gusting 1 19.4
2017-May-25 00:14 303 0 gusting 1 20.0
2017-May-25 00:09 077 0 gusting 2 20.0
2017-May-25 00:04 071 0 gusting 2 20.0
2017-May-24 23:59 274 0 gusting 1 20.0
2017-May-24 23:54 274 1 gusting 1 20.0
2017-May-24 23:49 274 1 gusting 2 20.0
2017-May-24 23:44 274 1 gusting 2 20.0
2017-May-24 23:39 274 1 gusting 2 20.0
2017-May-24 23:34 274 1 gusting 2 20.0
2017-May-24 23:29 274 1 gusting 4 20.0
2017-May-24 23:24 274 1 gusting 2 20.0
2017-May-24 23:19 274 1 gusting 2 20.0
2017-May-24 23:14 274 1 gusting 2 20.0
2017-May-24 23:09 274 1 gusting 4 20.0
2017-May-24 23:04 290 1 gusting 4 20.0
2017-May-24 22:59 290 1 gusting 4 20.0
2017-May-24 22:54 313 1 gusting 2 20.0
2017-May-24 22:49 310 1 gusting 2 20.0
2017-May-24 22:44 295 1 gusting 4 20.0
2017-May-24 22:39 310 1 gusting 4 20.6
2017-May-24 22:34 302 1 gusting 2 20.6
2017-May-24 22:29 302 1 gusting 4 20.6
2017-May-24 22:24 336 1 gusting 4 20.6
2017-May-24 22:19 054 1 gusting 1 20.6
2017-May-24 22:14 054 0 gusting 2 20.6
2017-May-24 22:09 108 0 gusting 2 20.6
2017-May-24 22:04 010 1 gusting 1 20.6
2017-May-24 21:59 009 1 gusting 5 20.6
2017-May-24 21:54 016 1 gusting 5 20.6
2017-May-24 21:49 025 1 gusting 1 20.6
2017-May-24 21:44 022 1 gusting 4 20.6
2017-May-24 21:39 037 1 gusting 4 20.6
2017-May-24 21:34 040 2 gusting 5 20.6
2017-May-24 21:29 053 2 gusting 5 20.6
2017-May-24 21:24 060 2 gusting 6 21.1
2017-May-24 21:19 066 2 gusting 5 21.1
2017-May-24 21:14 063 4 gusting 5 21.1
2017-May-24 21:09 038 4 gusting 6 21.1
2017-May-24 21:04 048 4 gusting 6 21.1
2017-May-24 20:59 037 4 gusting 6 21.1
2017-May-24 20:54 078 2 gusting 6 21.1
2017-May-24 20:49 066 2 gusting 5 21.1
2017-May-24 20:44 051 2 gusting 6 21.1
2017-May-24 20:39 074 2 gusting 5 21.1
2017-May-24 20:34 062 4 gusting 5 21.1
2017-May-24 20:29 057 4 gusting 5 21.7
2017-May-24 20:24 054 4 gusting 6 21.7
2017-May-24 20:19 040 4 gusting 7 21.7
2017-May-24 20:14 025 4 gusting 6 21.7
2017-May-24 20:09 049 4 gusting 6 21.7
2017-May-24 20:04 037 4 gusting 6 21.7
2017-May-24 19:59 042 4 gusting 6 21.7
2017-May-24 19:54 053 5 gusting 6 22.2
2017-May-24 19:49 033 5 gusting 7 22.2
2017-May-24 19:44 045 5 gusting 8 22.2
2017-May-24 19:39 032 5 gusting 8 22.2
2017-May-24 19:34 037 5 gusting 7 22.2
2017-May-24 19:29 034 5 gusting 7 22.8
2017-May-24 19:24 033 6 gusting 8 22.8
2017-May-24 19:19 031 6 gusting 10 22.8
2017-May-24 19:14 030 6 gusting 8 22.8
2017-May-24 19:09 031 6 gusting 10 23.3
2017-May-24 19:04 021 5 gusting 7 23.3
2017-May-24 18:59 046 5 gusting 7 23.9
2017-May-24 18:54 031 6 gusting 8 23.9
2017-May-24 18:49 045 6 gusting 7 23.9
2017-May-24 18:44 042 6 gusting 10 23.9
2017-May-24 18:39 037 6 gusting 10 24.4
2017-May-24 18:34 038 7 gusting 8 24.4
2017-May-24 18:29 030 7 gusting 13 24.4
2017-May-24 18:24 038 7 gusting 13 24.4
2017-May-24 18:19 039 7 gusting 14 24.4
2017-May-24 18:14 031 7 gusting 12 24.4
2017-May-24 18:09 032 7 gusting 12 24.4
2017-May-24 18:04 031 7 gusting 12 24.4
2017-May-24 17:59 048 7 gusting 13 24.4
2017-May-24 17:54 037 6 gusting 12 25.0
2017-May-24 17:49 039 6 gusting 12 25.0
2017-May-24 17:44 028 7 gusting 10 25.0
2017-May-24 17:39 035 7 gusting 11 25.0
2017-May-24 17:34 030 6 gusting 13 25.0
2017-May-24 17:29 031 6 gusting 12 25.0
2017-May-24 17:24 037 7 gusting 12 25.6
2017-May-24 17:19 029 7 gusting 12 25.6
2017-May-24 17:14 056 7 gusting 14 25.6
2017-May-24 17:09 047 7 gusting 14 25.6
2017-May-24 17:04 035 7 gusting 13 25.6
2017-May-24 16:59 036 7 gusting 13 25.6
2017-May-24 16:54 040 8 gusting 13 25.6
2017-May-24 16:49 047 8 gusting 14 25.6
2017-May-24 16:44 034 7 gusting 15 25.6
2017-May-24 16:39 046 7 gusting 13 25.6
2017-May-24 16:34 036 7 gusting 13 26.1
2017-May-24 16:29 040 7 gusting 13 26.1
2017-May-24 16:24 073 6 gusting 14 26.1
2017-May-24 16:19 047 6 gusting 15 26.1
2017-May-24 16:14 041 6 gusting 15 26.7
2017-May-24 16:09 048 6 gusting 13 26.7
2017-May-24 16:04 054 7 gusting 15 26.7
2017-May-24 15:59 017 7 gusting 14 26.7
2017-May-24 15:54 063 8 gusting 13 26.1
2017-May-24 15:49 043 8 gusting 15 26.1
2017-May-24 15:44 051 7 gusting 13 26.7
2017-May-24 15:39 032 7 gusting 13 26.7
2017-May-24 15:34 038 10 gusting 14 26.7
2017-May-24 15:29 042 10 gusting 14 26.7
2017-May-24 15:24 036 11 gusting 18 26.7
2017-May-24 15:19 035 11 gusting 18 26.7
2017-May-24 15:14 032 8 gusting 15 26.7
2017-May-24 15:09 033 8 gusting 14 26.7
2017-May-24 15:04 034 8 gusting 15 26.7
2017-May-24 14:59 040 8 gusting 17 26.7
2017-May-24 14:54 045 8 gusting 17 27.2
2017-May-24 14:49 035 8 gusting 13 27.2
2017-May-24 14:44 046 7 gusting 14 26.7
2017-May-24 14:39 041 7 gusting 14 26.7
2017-May-24 14:34 037 7 gusting 19 27.2
2017-May-24 14:29 037 7 gusting 13 26.7
2017-May-24 14:24 035 8 gusting 13 26.7
2017-May-24 14:19 039 8 gusting 13 26.7
2017-May-24 14:14 042 7 gusting 14 26.7
2017-May-24 14:09 031 7 gusting 13 26.7
2017-May-24 14:04 036 7 gusting 14 26.7
2017-May-24 13:59 035 7 gusting 15 26.7
2017-May-24 13:54 043 7 gusting 13 27.2
2017-May-24 13:49 051 7 gusting 13 27.2
2017-May-24 13:44 078 10 gusting 13 26.7
2017-May-24 13:39 031 10 gusting 19 26.7
2017-May-24 13:34 035 8 gusting 19 26.7
2017-May-24 13:29 045 8 gusting 18 26.7
2017-May-24 13:24 049 8 gusting 18 26.7
2017-May-24 13:19 038 8 gusting 17 26.7
2017-May-24 13:14 041 7 gusting 17 26.7
2017-May-24 13:09 066 7 gusting 13 27.2
2017-May-24 13:04 087 8 gusting 15 27.2
2017-May-24 12:59 038 8 gusting 13 27.2
2017-May-24 12:54 048 8 gusting 13 26.7
2017-May-24 12:49 032 8 gusting 13 26.7
2017-May-24 12:44 057 8 gusting 17 26.7
2017-May-24 12:39 040 8 gusting 17 26.7
2017-May-24 12:34 031 10 gusting 14 26.7
2017-May-24 12:29 037 10 gusting 14 26.7
2017-May-24 12:24 032 8 gusting 15 26.7
2017-May-24 12:19 028 8 gusting 15 27.2
2017-May-24 12:14 035 8 gusting 15 27.2
2017-May-24 12:09 047 8 gusting 14 27.2
2017-May-24 12:04 038 6 gusting 13 26.7
2017-May-24 11:59 037 6 gusting 19 27.2
2017-May-24 11:54 033 6 gusting 13 27.8
2017-May-24 11:49 051 6 gusting 10 27.2
2017-May-24 11:44 051 7 gusting 12 27.2
2017-May-24 11:39 057 7 gusting 13 27.2
2017-May-24 11:34 050 6 gusting 17 27.2
2017-May-24 11:29 098 6 gusting 13 26.7
2017-May-24 11:24 034 6 gusting 14 27.2
2017-May-24 11:19 058 6 gusting 11 26.7
2017-May-24 11:14 054 6 gusting 11 26.7
2017-May-24 11:09 084 6 gusting 14 26.7
2017-May-24 11:04 052 6 gusting 14 27.2
2017-May-24 10:59 061 6 gusting 11 26.7
2017-May-24 10:54 044 6 gusting 13 26.7
2017-May-24 10:49 056 6 gusting 12 26.7
2017-May-24 10:44 037 5 gusting 13 26.7
2017-May-24 10:39 036 5 gusting 10 26.1
2017-May-24 10:34 069 6 gusting 10 26.1
2017-May-24 10:29 010 6 gusting 8 26.1
2017-May-24 10:24 084 5 gusting 11 26.1
2017-May-24 10:19 084 5 gusting 8 25.6
2017-May-24 10:14 005 2 gusting 11 25.6
2017-May-24 10:09 088 2 gusting 11 25.6
2017-May-24 10:04 094 2 gusting 6 25.6
2017-May-24 09:59 069 2 gusting 6 25.6
2017-May-24 09:54 300 4 gusting 6 25.6
2017-May-24 09:49 045 4 gusting 7 25.6
2017-May-24 09:44 098 2 gusting 6 25.0
2017-May-24 09:39 014 2 gusting 6 25.0
2017-May-24 09:34 066 1 gusting 6 25.0
2017-May-24 09:29 328 1 gusting 5 25.6
2017-May-24 09:24 276 1 gusting 2 25.6
2017-May-24 09:19 079 1 gusting 6 25.6
2017-May-24 09:14 135 1 gusting 2 25.0
2017-May-24 09:09 121 1 gusting 2 24.4
2017-May-24 09:04 071 1 gusting 5 23.9
2017-May-24 08:59 115 1 gusting 4 23.9
2017-May-24 08:54 139 1 gusting 5 23.3
2017-May-24 08:49 202 1 gusting 5 23.3
2017-May-24 08:44 282 2 gusting 4 22.8
2017-May-24 08:39 254 2 gusting 4 22.8
2017-May-24 08:34 138 1 gusting 5 22.2
2017-May-24 08:29 204 1 gusting 6 22.2
2017-May-24 08:24 208 2 gusting 4 21.7
2017-May-24 08:19 272 2 gusting 4 21.7
2017-May-24 08:14 223 1 gusting 6 21.7
2017-May-24 08:09 233 1 gusting 6 21.7
2017-May-24 08:04 217 2 gusting 5 21.1
2017-May-24 07:59 245 2 gusting 5 21.1
2017-May-24 07:54 247 2 gusting 5 20.6
2017-May-24 07:49 273 2 gusting 6 20.6
2017-May-24 07:44 251 4 gusting 6 20.6
2017-May-24 07:39 218 4 gusting 6 20.0
2017-May-24 07:34 243 2 gusting 6 20.0
2017-May-24 07:29 253 2 gusting 6 20.0
2017-May-24 07:24 183 4 gusting 6 19.4
2017-May-24 07:19 178 4 gusting 5 19.4
2017-May-24 07:14 157 4 gusting 7 19.4
2017-May-24 07:09 165 4 gusting 6 18.9
2017-May-24 07:04 176 4 gusting 5 18.9
2017-May-24 06:59 171 4 gusting 6 18.3
2017-May-24 06:54 192 4 gusting 6 18.3
2017-May-24 06:49 175 4 gusting 5 18.3
2017-May-24 06:44 142 2 gusting 5 18.3
2017-May-24 06:39 166 2 gusting 5 17.8
2017-May-24 06:34 180 4 gusting 5 17.8
2017-May-24 06:29 197 4 gusting 5 17.8
2017-May-24 06:24 232 5 gusting 6 17.2
2017-May-24 06:19 192 5 gusting 8 17.2
2017-May-24 06:14 190 5 gusting 8 17.2
2017-May-24 06:09 184 5 gusting 8 17.2
2017-May-24 06:04 182 5 gusting 8 17.2
2017-May-24 05:59 175 5 gusting 6 17.2
2017-May-24 05:54 172 4 gusting 6 17.2
2017-May-24 05:49 177 4 gusting 6 17.2
2017-May-24 05:44 199 2 gusting 6 17.2
2017-May-24 05:39 170 2 gusting 5 17.2
2017-May-24 05:34 185 2 gusting 5 17.2
2017-May-24 05:29 189 2 gusting 4 17.2
2017-May-24 05:24 180 4 gusting 6 16.7
2017-May-24 05:19 193 4 gusting 6 16.7
2017-May-24 05:14 196 4 gusting 5 16.1
2017-May-24 05:09 183 4 gusting 6 16.1
2017-May-24 05:04 155 1 gusting 6 16.1
2017-May-24 05:00 153 1 gusting 6 16.1
2017-May-24 04:54 154 1 gusting 4 16.7
2017-May-24 04:49 133 1 gusting 2 16.7
2017-May-24 04:44 127 1 gusting 4 16.7
2017-May-24 04:39 116 1 gusting 4 16.7
2017-May-24 04:34 116 0 gusting 4 16.7
2017-May-24 04:29 111 0 gusting 4 17.2
2017-May-24 04:24 255 0 gusting 1 17.2
2017-May-24 04:19 255 0 gusting 1 16.7
2017-May-24 04:14 109 0 gusting 1 16.7
2017-May-24 04:04 109 1 gusting 1 16.7
2017-May-24 03:59 109 1 gusting 1 17.2
2017-May-24 03:54 109 1 gusting 2 17.2
2017-May-24 03:49 097 1 gusting 2 17.8
2017-May-24 03:44 274 1 gusting 2 17.8
2017-May-24 03:39 220 1 gusting 1 17.8
2017-May-24 03:34 222 1 gusting 2 17.8
2017-May-24 03:29 154 1 gusting 2 17.8
2017-May-24 03:24 152 1 gusting 2 17.8
2017-May-24 03:19 176 1 gusting 4 17.8
2017-May-24 03:14 155 2 gusting 4 17.2
2017-May-24 03:09 158 2 gusting 4 17.2
2017-May-24 03:04 160 1 gusting 5 17.8
2017-May-24 02:59 151 1 gusting 5 17.8
2017-May-24 02:54 157 0 gusting 4 17.8
2017-May-24 02:49 127 0 gusting 1 17.8
2017-May-24 02:44 096 17.8
2017-May-24 02:39 096 17.8
2017-May-24 02:34 096 17.8
2017-May-24 02:29 096 17.8
2017-May-24 02:24 096 17.8
2017-May-24 02:19 096 17.8
2017-May-24 02:14 096 17.8
2017-May-24 02:09 096 17.8
2017-May-24 02:04 095 0 gusting 0 17.8
2017-May-24 01:59 095 0 gusting 0 18.3
2017-May-24 01:54 095 0 gusting 1 18.3
2017-May-24 01:49 181 0 gusting 1 18.3
2017-May-24 01:44 242 1 gusting 1 18.3
2017-May-24 01:39 242 1 gusting 1 18.9
2017-May-24 01:34 242 1 gusting 2 18.9
2017-May-24 01:29 242 1 gusting 2 18.9
2017-May-24 01:24 242 1 gusting 4 18.9
2017-May-24 01:19 216 1 gusting 4 18.9
2017-May-24 01:14 196 1 gusting 4 18.9
2017-May-24 01:09 189 1 gusting 2 18.3
2017-May-24 01:04 189 18.3
2017-May-24 00:59 150 18.3
2017-May-24 00:54 322 1 gusting 1 18.3
2017-May-24 00:49 322 1 gusting 0 18.3
2017-May-24 00:44 322 18.3
2017-May-24 00:39 322 18.9
2017-May-24 00:34 313 0 gusting 1 18.9
2017-May-24 00:29 313 0 gusting 1 18.9
2017-May-24 00:24 313 0 gusting 1 18.9
2017-May-24 00:19 313 0 gusting 2 18.9
2017-May-24 00:14 315 18.9
2017-May-24 00:09 315 18.9
2017-May-24 00:04 315 1 gusting 1 18.9
2017-May-23 23:59 315 1 gusting 1 18.9
2017-May-23 23:54 315 18.9
2017-May-23 23:49 315 18.9
2017-May-23 23:44 315 0 gusting 1 18.9
2017-May-23 23:39 315 0 gusting 1 18.9
2017-May-23 23:34 315 0 gusting 1 18.9
2017-May-23 23:29 315 0 gusting 1 18.9
2017-May-23 23:24 315 0 gusting 1 19.4
2017-May-23 23:19 315 0 gusting 1 19.4
2017-May-23 23:14 315 1 gusting 1 19.4
2017-May-23 23:09 315 1 gusting 1 19.4
2017-May-23 23:04 315 0 gusting 2 19.4